GW5012 Weather Reports


time (UTC)temp
C
wind
direction
speed
KPH
gust
KPH
rain 1hr
cm
rain 24hr
cm
rain mn
cm
humidity
%
barometer
mb
20260906001600 22 329 6.4 16.1 0.00 0.00 0.00 38 1013.2
20260906000110 22 360 12.9 19.3 0.00 0.00 0.00 37 1013.3
20260905234604 23 22 4.8 14.5 0.00 0.03 0.00 38 1013.2
20260905233057 23 14 9.7 17.7 0.00 0.03 0.00 36 1013.2
20260905231600 23 360 9.7 17.7 0.00 0.03 0.00 37 1013.3
20260905230108 23 19 6.4 19.3 0.00 0.03 0.00 36 1013.5
20260905224605 23 5 3.2 16.1 0.00 0.03 0.00 37 1013.7
20260905223057 22 65 6.4 16.1 0.00 0.03 0.00 36 1013.7
20260905221557 23 14 4.8 19.3 0.00 0.03 0.00 34 1013.8
20260905220111 23 54 9.7 19.3 0.00 0.03 0.00 36 1014.0
20260905214605 23 19 9.7 16.1 0.00 0.03 0.00 37 1014.0
20260905213104 23 10 11.3 22.5 0.00 0.03 0.00 38 1014.1
20260905211604 22 308 4.8 17.7 0.00 0.03 0.00 36 1014.2
20260905210104 22 360 8.0 16.1 0.00 0.03 0.00 38 1014.3
20260905204558 22 41 6.4 16.1 0.00 0.03 0.00 40 1014.4
20260905203102 21 20 4.8 16.1 0.00 0.03 0.00 41 1014.4
20260905201559 21 109 8.0 14.5 0.00 0.03 0.00 43 1014.6
20260905200106 21 360 6.4 14.5 0.00 0.03 0.00 45 1014.8
20260905194558 20 58 1.6 12.9 0.00 0.03 0.00 52 1015.1
20260905193102 20 65 3.2 12.9 0.00 0.03 0.00 54 1015.3
20260905191600 18 75 3.2 11.3 0.00 0.03 0.00 55 1015.7
20260905190108 18 53 4.8 12.9 0.00 0.03 0.00 55 1015.9
20260905184608 17 325 0.0 12.9 0.00 0.03 0.00 59 1016.0
20260905183124 17 26 3.2 9.7 0.00 0.03 0.00 60 1016.1
20260905181604 17 350 3.2 12.9 0.00 0.03 0.00 62 1016.4
20260905180107 16 0 1.6 6.4 0.00 0.03 0.00 63 1016.4
20260905174605 16 248 1.6 8.0 0.00 0.03 0.00 67 1016.6
20260905173103 15 20 0.0 8.0 0.00 0.03 0.00 69 1016.6
20260905171605 15 0 1.6 6.4 0.00 0.03 0.00 71 1016.7
20260905170100 13 136 1.6 8.0 0.00 0.03 0.00 74 1017.0
20260905164606 13 5 1.6 4.8 0.00 0.03 0.00 76 1017.0
20260905163106 12 48 0.0 4.8 0.00 0.03 0.00 80 1017.2
20260905161601 12 0 0.0 4.8 0.00 0.03 0.00 83 1017.3
20260905160123 11 148 1.6 6.4 0.00 0.03 0.00 86 1017.3
20260905154604 11 112 0.0 4.8 0.00 0.03 0.00 87 1017.4
20260905153112 10 44 0.0 3.2 0.00 0.03 0.00 88 1017.3
20260905151559 10 0 0.0 1.6 0.00 0.03 0.00 88 1017.4
20260905144606 9 0 0.0 1.6 0.00 0.03 0.00 92 1017.5
20260905143059 8 0 0.0 0.0 0.00 0.03 0.00 93 1017.4
20260905141604 8 0 0.0 0.0 0.00 0.03 0.00 94 1017.2
20260905140109 8 355 1.6 3.2 0.00 0.03 0.00 94 1017.3
20260905134558 8 0 0.0 0.0 0.00 0.05 0.00 93 1017.0
20260905133108 8 0 0.0 0.0 0.00 0.05 0.00 93 1017.1
20260905131611 8 0 0.0 0.0 0.00 0.05 0.00 92 1016.9
20260905130115 8 0 0.0 0.0 0.00 0.05 0.00 93 1016.8
20260905124600 8 0 0.0 0.0 0.00 0.05 0.00 93 1016.8
20260905123107 8 0 0.0 0.0 0.00 0.05 0.00 92 1016.8
20260905121601 9 0 0.0 0.0 0.00 0.05 0.00 92 1017.0
20260905120112 9 0 0.0 0.0 0.00 0.05 0.00 92 1017.0
20260905114555 9 0 0.0 0.0 0.00 0.05 0.00 92 1017.1
20260905113058 9 0 0.0 3.2 0.00 0.05 0.00 92 1017.0
20260905111611 9 0 0.0 3.2 0.00 0.05 0.00 92 1017.0
20260905110101 9 0 0.0 0.0 0.00 0.05 0.00 93 1017.0
20260905104600 9 0 0.0 3.2 0.00 0.05 0.00 92 1017.0
20260905103102 9 0 0.0 0.0 0.00 0.05 0.00 92 1017.2
20260905101602 9 0 0.0 0.0 0.00 0.05 0.00 91 1017.0
20260905094603 10 0 0.0 0.0 0.00 0.05 0.00 90 1016.8
20260905093058 10 0 0.0 3.2 0.00 0.05 0.00 90 1016.8
20260905091609 10 0 0.0 1.6 0.00 0.05 0.00 91 1017.0
20260905090100 10 0 0.0 3.2 0.00 0.05 0.00 89 1016.9
20260905084617 10 0 0.0 1.6 0.00 0.05 0.00 89 1016.9
20260905083055 10 0 1.6 4.8 0.00 0.05 0.00 88 1016.8
20260905081604 11 0 0.0 1.6 0.00 0.05 0.00 87 1016.7
20260905080105 11 0 0.0 4.8 0.00 0.05 0.00 85 1016.7
20260905074605 11 0 0.0 0.0 0.00 0.05 0.00 84 1016.7
20260905073106 11 0 0.0 0.0 0.00 0.05 0.00 84 1016.7
20260905071554 11 0 0.0 0.0 0.00 0.05 0.00 83 1016.6
20260905070103 12 166 1.6 6.4 0.00 0.05 0.00 83 1016.5
20260905064601 12 139 1.6 4.8 0.00 0.05 0.05 82 1016.3
20260905063100 12 0 0.0 1.6 0.00 0.05 0.05 83 1016.5
20260905061601 12 103 0.0 4.8 0.00 0.05 0.05 82 1016.5
20260905060101 12 0 0.0 4.8 0.00 0.05 0.05 83 1016.2
20260905054600 12 0 1.6 3.2 0.00 0.05 0.05 82 1016.3
20260905053141 12 0 0.0 4.8 0.00 0.05 0.05 82 1016.4
20260905051559 12 0 0.0 0.0 0.00 0.05 0.05 80 1016.3
20260905044605 13 0 0.0 3.2 0.00 0.05 0.05 77 1016.3
20260905043106 13 0 0.0 4.8 0.00 0.05 0.05 76 1016.1
20260905041608 13 179 1.6 9.7 0.00 0.05 0.05 74 1016.0
20260905040104 14 159 1.6 4.8 0.00 0.05 0.05 71 1015.9
20260905034556 15 0 0.0 0.0 0.00 0.05 0.05 68 1015.8
20260905033103 15 0 0.0 4.8 0.00 0.05 0.05 64 1015.5
20260905031557 15 0 1.6 4.8 0.00 0.05 0.05 65 1015.4
20260905024621 16 339 1.6 4.8 0.00 0.05 0.05 63 1015.1
20260905023110 16 5 3.2 11.3 0.00 0.05 0.05 62 1015.0
20260905021600 16 5 8.0 14.5 0.00 0.05 0.05 60 1014.9
20260905020110 16 360 9.7 17.7 0.00 0.05 0.05 59 1014.9
20260905014615 16 46 3.2 9.7 0.00 0.05 0.05 60 1014.7
20260905013104 16 57 3.2 14.5 0.00 0.05 0.05 59 1014.6
20260905011619 16 49 6.4 17.7 0.00 0.05 0.05 61 1014.7
20260905010101 16 61 12.9 19.3 0.00 0.05 0.05 60 1014.5
20260905004600 16 11 8.0 20.9 0.03 0.05 0.05 62 1014.4
20260905003103 16 14 11.3 19.3 0.03 0.05 0.05 62 1014.3